This is the latest recevied weather packets stored in our database for station/object N4TLC. If no packets are shown the sender has not sent any weather packets the latest 10 day(s).
| Time | Temp. | Humidity | Pressure | Rain* | Wind** | Luminosity | Snow |
|---|---|---|---|---|---|---|---|
| 1777945071 | 20.56° C | 32% | 1016.4 hPa | 0 mm | - | 0 W/m² | - |
| 1777944769 | 20.56° C | 32% | 1016.2 hPa | 0 mm | - | 0 W/m² | - |
| 1777944467 | 20.56° C | 33% | 1016.3 hPa | 0 mm | - | 0 W/m² | - |
| 1777944164 | 20° C | 34% | 1016.3 hPa | 0 mm | - | 0 W/m² | - |
| 1777943859 | 20° C | 36% | 1016 hPa | 0 mm | - | 0 W/m² | - |
| 1777943557 | 20° C | 36% | 1016.1 hPa | 0 mm | - | 0 W/m² | - |
| 1777943252 | 20° C | 36% | 1016 hPa | 0 mm | - | 0 W/m² | - |
| 1777942949 | 20.56° C | 35% | 1015.9 hPa | 0 mm | - | 0 W/m² | - |
| 1777942645 | 20.56° C | 36% | 1015.8 hPa | 0 mm | - | 0 W/m² | - |
| 1777942343 | 20.56° C | 36% | 1015.7 hPa | 0 mm | - | 0 W/m² | - |
| 1777942040 | 20.56° C | 36% | 1015.8 hPa | 0 mm | - | 0 W/m² | - |
| 1777941736 | 20.56° C | 35% | 1015.7 hPa | 0 mm | - | 0 W/m² | - |
| 1777941433 | 21.11° C | 34% | 1015.6 hPa | 0 mm | - | 0 W/m² | - |
| 1777941131 | 21.11° C | 34% | 1015.7 hPa | 0 mm | - | 0 W/m² | - |
| 1777940827 | 21.67° C | 34% | 1015.7 hPa | 0 mm | - | 0 W/m² | - |
| 1777940525 | 21.67° C | 34% | 1015.7 hPa | 0 mm | - | 0 W/m² | - |
| 1777940222 | 22.22° C | 33% | 1015.7 hPa | 0 mm | - | 1 W/m² | - |
| 1777939919 | 22.22° C | 32% | 1015.5 hPa | 0 mm | - | 2 W/m² | - |
| 1777939616 | 22.78° C | 32% | 1015.6 hPa | 0 mm | - | 4 W/m² | - |
| 1777939314 | 22.78° C | 31% | 1015.6 hPa | 0 mm | - | 6 W/m² | - |
| 1777939010 | 22.78° C | 31% | 1015.5 hPa | 0 mm | - | 8 W/m² | - |
| 1777938706 | 23.33° C | 32% | 1015.4 hPa | 0 mm | - | 11 W/m² | - |
| 1777938404 | 23.33° C | 31% | 1015.4 hPa | 0 mm | - | 13 W/m² | - |
| 1777938101 | 23.89° C | 31% | 1015.4 hPa | 0 mm | - | 16 W/m² | - |
| 1777937797 | 24.44° C | 31% | 1015.1 hPa | 0 mm | - | 20 W/m² | - |
* Rain latest hour (hover to see other rain measurements)
** Current wind speed in m/s (hover to see current wind gust speed)